Midland Airpark, TX

12:10 AM CDT on April 25, 2017 (GMT -0500)
Midland

Weather History for KMDD - October, 2013

Change the Weather History Date:

Sunday, October 6, 2013

  Actual Average (KMAF) Record (KMAF)
Temperature  
Mean Temperature 62 °F -  
Max Temperature 78 °F 78 °F 96 °F (1937)
Min Temperature 47 °F 54 °F 41 °F (1932)
Degree Days  
Heating Degree Days 2    
Growing Degree Days 12 (Base 50)    
Moisture  
Dew Point 26 °F    
Average Humidity 29    
Maximum Humidity 52    
Minimum Humidity 11    
Precipitation  
Precipitation 0.00 in - - ()
Sea Level Pressure  
Sea Level Pressure 30.21 in    
Wind  
Wind Speed 2 mph (WSW)    
Max Wind Speed 7 mph    
Max Gust Speed -    
Visibility 10 miles    
Events      
Averages and records for this station are not official NWS values.
T = Trace of Precipitation, MM = Missing Value Source: NWS Daily Summary

Daily Weather History Graph

Daily Weather History Graph

Search for Another Location

Airport or City:

Trip Planner

Search our weather history database for the weather conditions in past years. The results will help you decide how hot, cold, wet, or windy it might be!

Date:

Astronomy

Oct. 06, 2013 Rise Set
Actual Time 7:45 AM CDT 7:26 PM CDT
Civil Twilight 7:21 AM CDT 7:50 PM CDT
Nautical Twilight 6:53 AM CDT 8:19 PM CDT
Astronomical Twilight 6:24 AM CDT 8:47 PM CDT
Moon 9:24 AM CDT (10/6) 8:36 PM CDT (10/6)
Length of Visible Light 12h 29m
Length of Day
11h 40m
Waxing Crescent, 3% of the Moon is Illuminated
Oct 6
Waxing Crescent
Oct 11
First Quarter
Oct 18
Full
Oct 26
Last Quarter
Nov 3
New

Hourly Weather History & Observations

Time (CDT) Temp. Dew Point Humidity Pressure Visibility Wind Dir Wind Speed Gust Speed Precip Events Conditions
12:15 AM 57.9 °F 30.2 °F 35% 30.19 in 10.0 mi ENE 3.5 mph - N/A   Clear
12:35 AM 56.5 °F 30.4 °F 37% 30.19 in 10.0 mi Calm Calm - N/A   Clear
12:55 AM 56.7 °F 30.6 °F 37% 30.19 in 10.0 mi Calm Calm - N/A   Clear
1:15 AM 55.8 °F 30.7 °F 39% 30.19 in 10.0 mi Calm Calm - N/A   Clear
1:35 AM 55.4 °F 30.6 °F 39% 30.20 in 10.0 mi Calm Calm - N/A   Clear
1:55 AM 54.7 °F 30.9 °F 40% 30.20 in 10.0 mi NE 3.5 mph - N/A   Clear
2:15 AM 53.4 °F 32.5 °F 45% 30.20 in 10.0 mi Calm Calm - N/A   Clear
2:35 AM 52.3 °F 33.1 °F 48% 30.20 in 10.0 mi Calm Calm - N/A   Clear
2:55 AM 51.8 °F 31.8 °F 47% 30.20 in 10.0 mi Calm Calm - N/A   Clear
3:15 AM 51.6 °F 31.3 °F 46% 30.20 in 10.0 mi Calm Calm - N/A   Clear
3:35 AM 51.1 °F 31.3 °F 47% 30.20 in 10.0 mi Calm Calm - N/A   Clear
3:55 AM 51.8 °F 31.5 °F 46% 30.20 in 10.0 mi Calm Calm - N/A   Clear
4:15 AM 50.2 °F 32.0 °F 50% 30.21 in 10.0 mi Calm Calm - N/A   Clear
4:35 AM 50.0 °F 32.0 °F 50% 30.21 in 10.0 mi Calm Calm - N/A   Clear
4:55 AM 50.4 °F 32.2 °F 50% 30.21 in 10.0 mi WNW 4.6 mph - N/A   Clear
5:15 AM 49.6 °F 32.0 °F 51% 30.21 in 10.0 mi West 3.5 mph - N/A   Clear
5:35 AM 50.0 °F 32.0 °F 50% 30.22 in 10.0 mi WNW 3.5 mph - N/A   Clear
5:55 AM 49.6 °F 32.0 °F 51% 30.22 in 10.0 mi Calm Calm - N/A   Clear
6:15 AM 49.3 °F 32.0 °F 51% 30.22 in 10.0 mi Calm Calm - N/A   Clear
6:35 AM 48.2 °F 31.1 °F 52% 30.23 in 10.0 mi WSW 3.5 mph - N/A   Clear
6:55 AM 47.8 °F 31.1 °F 52% 30.24 in 10.0 mi West 4.6 mph - N/A   Clear
7:15 AM 48.4 °F 31.1 °F 51% 30.24 in 10.0 mi West 5.8 mph - N/A   Clear
7:35 AM 48.2 °F 30.7 °F 51% 30.24 in 10.0 mi West 3.5 mph - N/A   Clear
7:55 AM 48.0 °F 30.9 °F 52% 30.25 in 10.0 mi West 3.5 mph - N/A   Clear
8:15 AM 48.9 °F 31.1 °F 50% 30.25 in 10.0 mi Calm Calm - N/A   Clear
8:35 AM 50.0 °F 31.1 °F 48% 30.26 in 10.0 mi West 3.5 mph - N/A   Clear
8:55 AM 51.8 °F 31.6 °F 46% 30.26 in 10.0 mi West 4.6 mph - N/A   Clear
9:15 AM 54.3 °F 31.8 °F 42% 30.27 in 10.0 mi West 4.6 mph - N/A   Clear
9:35 AM 57.2 °F 32.5 °F 39% 30.27 in 10.0 mi West 4.6 mph - N/A   Clear
9:55 AM 59.5 °F 32.7 °F 36% 30.28 in 10.0 mi West 4.6 mph - N/A   Clear
10:15 AM 61.7 °F 32.2 °F 33% 30.28 in 10.0 mi West 4.6 mph - N/A   Clear
10:35 AM 63.9 °F 32.5 °F 31% 30.28 in 10.0 mi West 5.8 mph - N/A   Clear
10:55 AM 65.8 °F 32.0 °F 28% 30.28 in 10.0 mi West 3.5 mph - N/A   Clear
11:15 AM 67.5 °F 31.1 °F 26% 30.28 in 10.0 mi Calm Calm - N/A   Clear
11:35 AM 68.5 °F 30.4 °F 24% 30.28 in 10.0 mi WNW 5.8 mph - N/A   Clear
11:55 AM 70.0 °F 29.3 °F 22% 30.27 in 10.0 mi West 4.6 mph - N/A   Clear
12:15 PM 70.9 °F 27.9 °F 20% 30.26 in 10.0 mi NW 5.8 mph - N/A   Clear
12:35 PM 72.1 °F 21.4 °F 15% 30.26 in 10.0 mi NE 3.5 mph - N/A   Clear
12:55 PM 73.6 °F 15.4 °F 11% 30.26 in 10.0 mi East 3.5 mph - N/A   Clear
1:15 PM 73.8 °F 18.3 °F 12% 30.25 in 10.0 mi South 3.5 mph - N/A   Clear
1:35 PM 74.1 °F 19.8 °F 13% 30.24 in 10.0 mi SSW 4.6 mph - N/A   Clear
1:55 PM 74.7 °F 19.9 °F 13% 30.23 in 10.0 mi West 3.5 mph - N/A   Clear
2:15 PM 75.2 °F 20.1 °F 13% 30.22 in 10.0 mi SSW 3.5 mph - N/A   Clear
2:35 PM 75.7 °F 20.3 °F 13% 30.21 in 10.0 mi WNW 5.8 mph - N/A   Clear
2:55 PM 77.0 °F 20.5 °F 12% 30.20 in 10.0 mi Calm Calm - N/A   Clear
3:15 PM 76.6 °F 20.3 °F 12% 30.19 in 10.0 mi Calm Calm - N/A   Clear
3:35 PM 77.4 °F 20.5 °F 12% 30.19 in 10.0 mi WSW 4.6 mph - N/A   Clear
3:55 PM 77.9 °F 20.5 °F 12% 30.19 in 10.0 mi West 3.5 mph - N/A   Clear
4:15 PM 77.9 °F 19.6 °F 11% 30.18 in 10.0 mi West 3.5 mph - N/A   Clear
4:35 PM 78.4 °F 19.2 °F 11% 30.18 in 10.0 mi WSW 5.8 mph - N/A   Clear
4:55 PM 78.4 °F 19.0 °F 11% 30.17 in 10.0 mi West 6.9 mph - N/A   Clear
5:15 PM 78.1 °F 18.9 °F 11% 30.17 in 10.0 mi Calm Calm - N/A   Clear
5:35 PM 78.1 °F 19.0 °F 11% 30.16 in 10.0 mi North 3.5 mph - N/A   Clear
5:55 PM 78.1 °F 18.5 °F 11% 30.16 in 10.0 mi Calm Calm - N/A   Clear
6:15 PM 78.4 °F 18.5 °F 11% 30.16 in 10.0 mi SSW 3.5 mph - N/A   Clear
6:35 PM 77.9 °F 18.3 °F 11% 30.16 in 10.0 mi Calm Calm - N/A   Clear
6:55 PM 77.7 °F 18.7 °F 11% 30.16 in 10.0 mi South 3.5 mph - N/A   Clear
7:15 PM 77.0 °F 19.0 °F 11% 30.17 in 10.0 mi NNE 4.6 mph - N/A   Clear
7:35 PM 75.6 °F 19.2 °F 12% 30.17 in 10.0 mi East 3.5 mph - N/A   Clear
7:55 PM 74.1 °F 19.9 °F 13% 30.18 in 10.0 mi Calm Calm - N/A   Clear
8:15 PM 73.6 °F 20.3 °F 13% 30.18 in 10.0 mi Calm Calm - N/A   Clear
8:35 PM 72.7 °F 20.8 °F 14% 30.18 in 10.0 mi SSE 3.5 mph - N/A   Clear
8:55 PM 69.4 °F 23.7 °F 18% 30.19 in 10.0 mi SSW 4.6 mph - N/A   Clear
9:15 PM 68.9 °F 25.5 °F 20% 30.19 in 10.0 mi SSW 4.6 mph - N/A   Clear
9:35 PM 68.0 °F 24.3 °F 19% 30.19 in 10.0 mi SSW 4.6 mph - N/A   Clear
9:55 PM 68.0 °F 23.4 °F 19% 30.20 in 10.0 mi SSW 5.8 mph - N/A   Clear
10:15 PM 67.1 °F 23.5 °F 19% 30.20 in 10.0 mi SSW 5.8 mph - N/A   Clear
10:35 PM 65.5 °F 23.0 °F 20% 30.20 in 10.0 mi SW 3.5 mph - N/A   Clear
10:55 PM 64.4 °F 23.5 °F 21% 30.20 in 10.0 mi Calm Calm - N/A   Clear
11:15 PM 64.6 °F 24.3 °F 22% 30.21 in 10.0 mi Calm Calm - N/A   Clear
11:35 PM 64.2 °F 24.1 °F 22% 30.21 in 10.0 mi Calm Calm - N/A   Clear
11:55 PM 63.3 °F 26.2 °F 25% 30.20 in 10.0 mi Calm Calm - N/A   Clear